When you browse on this site, cookies collect data to enhance your experience and personalize the content and advertising you see.
Visit our Privacy Policy to learn more. By continuing to use the site, you agree to this use of cookies and data.
  • In Deutschland
  • Länderverzeichnis
  • Für 7 Tage
  • Wassertemperatur
  • Satellitenkarten
  • Wetterkarte
  • Widgets
  • user-avatar
    Anmelden

    Stündliche Wetter Lysobyki

    Heute, 27 Mai, Montag

    Zeit Temperatur Niederschläge Wind Luftdruck Luftfeuchtigkeit
    00:00 +13°C° 0 mm 3 m/S 749 mmHg 83%
    01:00 +13°C° 0 mm 3 m/S 748 mmHg 85%
    02:00 +13°C° 0 mm 3 m/S 748 mmHg 87%
    03:00 +13°C° 0 mm 3 m/S 748 mmHg 89%
    04:00 +12°C° 0 mm 3 m/S 748 mmHg 91%
    05:00 +14°C° 0 mm 4 m/S 748 mmHg 85%
    06:00 +17°C° 0 mm 4 m/S 748 mmHg 80%
    07:00 +19°C° 0 mm 4 m/S 748 mmHg 74%
    08:00 +20°C° 0.1 mm 5 m/S 748 mmHg 68%
    09:00 +22°C° 0.1 mm 5 m/S 748 mmHg 63%
    10:00 +23°C° 0.1 mm 5 m/S 748 mmHg 57%
    11:00 +25°C° 0.1 mm 5 m/S 747 mmHg 55%
    12:00 +26°C° 0.1 mm 5 m/S 747 mmHg 54%
    13:00 +26°C° 0.1 mm 5 m/S 747 mmHg 52%
    14:00 +26°C° 0.2 mm 5 m/S 747 mmHg 55%
    15:00 +26°C° 0.2 mm 5 m/S 746 mmHg 57%
    16:00 +26°C° 0.2 mm 4 m/S 746 mmHg 59%
    17:00 +23°C° 0.3 mm 4 m/S 746 mmHg 66%
    18:00 +22°C° 0.3 mm 3 m/S 746 mmHg 73%
    19:00 +20°C° 0.3 mm 3 m/S 746 mmHg 79%
    20:00 +19°C° 0 mm 3 m/S 746 mmHg 81%
    21:00 +19°C° 0 mm 2 m/S 746 mmHg 83%
    22:00 +18°C° 0 mm 2 m/S 746 mmHg 85%
    23:00 +18°C° 0.3 mm 2 m/S 746 mmHg 88%

    Morgen, 28 Mai, Dienstag

    Zeit Temperatur Niederschläge Wind Luftdruck Luftfeuchtigkeit
    00:00 +17°C° 0.3 mm 2 m/S 746 mmHg 90%
    01:00 +17°C° 0.3 mm 2 m/S 745 mmHg 93%
    02:00 +17°C° 0.5 mm 3 m/S 745 mmHg 94%
    03:00 +17°C° 0.5 mm 3 m/S 744 mmHg 95%
    04:00 +17°C° 0.5 mm 3 m/S 744 mmHg 96%
    05:00 +17°C° 0.5 mm 3 m/S 744 mmHg 94%
    06:00 +18°C° 0.5 mm 3 m/S 743 mmHg 92%
    07:00 +18°C° 0.5 mm 3 m/S 743 mmHg 90%
    08:00 +20°C° 0.3 mm 3 m/S 743 mmHg 86%
    09:00 +21°C° 0.3 mm 3 m/S 743 mmHg 82%
    10:00 +22°C° 0.3 mm 4 m/S 743 mmHg 77%
    11:00 +23°C° 0.5 mm 4 m/S 743 mmHg 74%
    12:00 +23°C° 0.5 mm 5 m/S 743 mmHg 71%
    13:00 +25°C° 0.5 mm 5 m/S 743 mmHg 68%
    14:00 +23°C° 1.7 mm 4 m/S 743 mmHg 73%
    15:00 +22°C° 1.7 mm 3 m/S 743 mmHg 78%
    16:00 +21°C° 1.7 mm 3 m/S 743 mmHg 84%
    17:00 +20°C° 0.9 mm 2 m/S 743 mmHg 84%
    18:00 +21°C° 0.9 mm 1 m/S 743 mmHg 85%
    19:00 +20°C° 0.9 mm 1 m/S 743 mmHg 86%
    20:00 +18°C° 0.7 mm 2 m/S 744 mmHg 89%
    21:00 +17°C° 0.7 mm 3 m/S 744 mmHg 92%
    22:00 +15°C° 0.7 mm 4 m/S 744 mmHg 94%
    23:00 +14°C° 0 mm 5 m/S 745 mmHg 94%

    übermorgen, 29 Mai, Mittwoch

    Zeit Temperatur Niederschläge Wind Luftdruck Luftfeuchtigkeit
    00:00 +13°C° 0 mm 5 m/S 745 mmHg 94%
    01:00 +12°C° 0 mm 5 m/S 746 mmHg 94%
    02:00 +10°C° 0 mm 5 m/S 746 mmHg 93%
    03:00 +10°C° 0 mm 5 m/S 747 mmHg 92%
    04:00 +9°C° 0 mm 5 m/S 747 mmHg 91%
    05:00 +9°C° 0.1 mm 5 m/S 748 mmHg 89%
    06:00 +9°C° 0.1 mm 5 m/S 748 mmHg 88%
    07:00 +9°C° 0.1 mm 5 m/S 749 mmHg 86%
    08:00 +10°C° 0 mm 4 m/S 750 mmHg 84%
    09:00 +11°C° 0 mm 4 m/S 750 mmHg 82%
    10:00 +12°C° 0 mm 4 m/S 751 mmHg 79%
    11:00 +12°C° 0 mm 4 m/S 751 mmHg 76%
    12:00 +13°C° 0 mm 4 m/S 751 mmHg 72%
    13:00 +14°C° 0 mm 4 m/S 752 mmHg 69%
    14:00 +14°C° 0 mm 3 m/S 752 mmHg 68%
    15:00 +16°C° 0 mm 3 m/S 752 mmHg 68%
    16:00 +16°C° 0 mm 3 m/S 752 mmHg 68%
    17:00 +16°C° 0 mm 3 m/S 752 mmHg 70%
    18:00 +14°C° 0 mm 3 m/S 752 mmHg 72%
    19:00 +14°C° 0 mm 3 m/S 752 mmHg 74%
    20:00 +13°C° 0 mm 3 m/S 753 mmHg 74%
    21:00 +12°C° 0 mm 3 m/S 753 mmHg 75%
    22:00 +10°C° 0 mm 3 m/S 754 mmHg 75%
    23:00 +10°C° 0 mm 3 m/S 754 mmHg 76%

    30 Mai, Donnerstag

    Zeit Temperatur Niederschläge Wind Luftdruck Luftfeuchtigkeit
    00:00 +9°C° 0 mm 3 m/S 754 mmHg 78%
    01:00 +8°C° 0 mm 3 m/S 754 mmHg 79%
    02:00 +7°C° 0 mm 3 m/S 754 mmHg 79%
    03:00 +7°C° 0 mm 3 m/S 754 mmHg 79%
    04:00 +5°C° 0 mm 3 m/S 754 mmHg 79%
    05:00 +8°C° 0 mm 2 m/S 754 mmHg 76%
    06:00 +9°C° 0 mm 2 m/S 754 mmHg 73%
    07:00 +12°C° 0 mm 2 m/S 755 mmHg 69%
    08:00 +12°C° 0 mm 2 m/S 755 mmHg 70%
    09:00 +13°C° 0 mm 2 m/S 755 mmHg 72%
    10:00 +13°C° 0 mm 2 m/S 755 mmHg 73%
    11:00 +14°C° 0 mm 2 m/S 755 mmHg 72%
    12:00 +14°C° 0 mm 2 m/S 755 mmHg 71%
    13:00 +15°C° 0 mm 2 m/S 754 mmHg 70%
    14:00 +15°C° 0 mm 2 m/S 754 mmHg 67%
    15:00 +16°C° 0 mm 2 m/S 754 mmHg 63%
    16:00 +17°C° 0 mm 2 m/S 754 mmHg 60%
    17:00 +16°C° 0 mm 1 m/S 754 mmHg 63%
    18:00 +16°C° 0 mm 1 m/S 754 mmHg 67%
    19:00 +15°C° 0 mm 1 m/S 754 mmHg 71%
    20:00 +14°C° 0 mm 1 m/S 754 mmHg 72%
    21:00 +13°C° 0 mm 1 m/S 754 mmHg 74%
    22:00 +12°C° 0 mm 1 m/S 754 mmHg 75%
    23:00 +11°C° 0 mm 1 m/S 754 mmHg 76%

    31 Mai, Freitag

    Zeit Temperatur Niederschläge Wind Luftdruck Luftfeuchtigkeit
    00:00 +11°C° 0 mm 1 m/S 753 mmHg 77%
    01:00 +10°C° 0 mm 1 m/S 753 mmHg 78%
    02:00 +10°C° 0 mm 1 m/S 753 mmHg 79%
    03:00 +10°C° 0 mm 1 m/S 753 mmHg 81%
    04:00 +10°C° 0 mm 1 m/S 752 mmHg 82%
    05:00 +12°C° 0 mm 1 m/S 752 mmHg 78%
    06:00 +13°C° 0 mm 2 m/S 752 mmHg 75%
    07:00 +15°C° 0 mm 2 m/S 752 mmHg 71%
    08:00 +17°C° 0 mm 3 m/S 751 mmHg 67%
    09:00 +18°C° 0 mm 3 m/S 751 mmHg 62%
    10:00 +20°C° 0 mm 3 m/S 750 mmHg 58%
    11:00 +21°C° 0 mm 3 m/S 750 mmHg 55%
    12:00 +22°C° 0 mm 3 m/S 749 mmHg 52%
    13:00 +24°C° 0 mm 3 m/S 749 mmHg 49%
    14:00 +22°C° 0.4 mm 4 m/S 749 mmHg 56%
    15:00 +21°C° 0.4 mm 6 m/S 750 mmHg 64%
    16:00 +20°C° 0.4 mm 7 m/S 750 mmHg 71%
    17:00 +16°C° 0.2 mm 7 m/S 751 mmHg 76%
    18:00 +11°C° 0.2 mm 7 m/S 752 mmHg 80%
    19:00 +7°C° 0.2 mm 8 m/S 753 mmHg 85%
    20:00 +8°C° 0.1 mm 7 m/S 754 mmHg 82%
    21:00 +8°C° 0.1 mm 6 m/S 754 mmHg 79%
    22:00 +8°C° 0.1 mm 5 m/S 755 mmHg 77%
    23:00 +7°C° 0 mm 5 m/S 756 mmHg 77%

    1 Juni, Samstag

    Zeit Temperatur Niederschläge Wind Luftdruck Luftfeuchtigkeit
    00:00 +7°C° 0 mm 5 m/S 756 mmHg 77%
    01:00 +7°C° 0 mm 5 m/S 757 mmHg 77%
    02:00 +6°C° 0 mm 5 m/S 757 mmHg 77%
    03:00 +5°C° 0 mm 4 m/S 757 mmHg 76%
    04:00 +5°C° 0 mm 4 m/S 758 mmHg 76%
    05:00 +6°C° 0 mm 4 m/S 758 mmHg 72%
    06:00 +8°C° 0 mm 4 m/S 758 mmHg 68%
    07:00 +9°C° 0 mm 5 m/S 759 mmHg 64%
    08:00 +10°C° 0 mm 5 m/S 759 mmHg 59%
    09:00 +13°C° 0 mm 5 m/S 759 mmHg 54%
    10:00 +14°C° 0 mm 5 m/S 759 mmHg 49%
    11:00 +15°C° 0 mm 5 m/S 759 mmHg 49%
    12:00 +16°C° 0 mm 5 m/S 759 mmHg 48%
    13:00 +16°C° 0 mm 5 m/S 759 mmHg 48%
    14:00 +16°C° 0 mm 5 m/S 759 mmHg 49%
    15:00 +16°C° 0 mm 5 m/S 759 mmHg 51%
    16:00 +16°C° 0 mm 5 m/S 759 mmHg 52%
    17:00 +14°C° 0 mm 5 m/S 760 mmHg 57%
    18:00 +13°C° 0 mm 4 m/S 760 mmHg 62%
    19:00 +12°C° 0 mm 3 m/S 760 mmHg 66%
    20:00 +11°C° 0 mm 3 m/S 760 mmHg 69%
    21:00 +10°C° 0 mm 3 m/S 761 mmHg 72%
    22:00 +8°C° 0 mm 3 m/S 761 mmHg 75%
    23:00 +7°C° 0 mm 3 m/S 761 mmHg 76%
    Mehr zeigen